Location: Emblem
(62.4273°N, 6.4710°E)
Time: 05:32:27
(UTC+02:00)

Transit 2A - Pass Details

Date: 03 March 2024
Orbit: 596 x 956 km, 66.7° (Epoch: 24 April)

Event Time Altitude Azimuth Distance (km) Brightness Sun altitude
Rises 00:12:03 0° 292° (WNW) 2,890 9.4 -33.9°
Reaches altitude 10° 00:14:17 10° 297° (WNW) 2,011 8.5 -34.0°
Enters shadow 00:14:40 12° 298° (WNW) 1,863 8.4 -34.0°
